This is the latest recevied weather packets stored in our database for station/object N8SDR. If no packets are shown the sender has not sent any weather packets the latest 1 day(s).
| Time | Temp. | Humidity | Pressure | Rain* | Wind** | Luminosity | Snow |
|---|---|---|---|---|---|---|---|
| 1836274767 | 20.56° C | 79% | 1014.7 hPa | 0 mm | 0.45 m/s, 349° | 0 W/m² | - |
| 1836274465 | 20.56° C | 80% | 1014.6 hPa | 0 mm | 0 m/s | 0 W/m² | - |
| 1836274319 | 21.11° C | 79% | 1014.6 hPa | 0 mm | 0 m/s | 0 W/m² | - |
| 1836274163 | 20.56° C | 80% | 1014.7 hPa | 0 mm | 0 m/s | 0 W/m² | - |
| 1778046576 | 8.33° C | 99% | 1004.2 hPa | 1.78 mm | 0 m/s | 0 W/m² | - |
| 1778046273 | 8.33° C | 99% | 1004.2 hPa | 3.05 mm | 1.34 m/s, 342° | 0 W/m² | - |
| 1778045969 | 8.33° C | 99% | 1004.2 hPa | 3.05 mm | 0.89 m/s, 34° | 0 W/m² | - |
| 1778045667 | 8.89° C | 99% | 1004.1 hPa | 3.05 mm | 1.34 m/s, 49° | 0 W/m² | - |
| 1778045365 | 8.89° C | 99% | 1004.4 hPa | 3.05 mm | 0.89 m/s, 4° | 0 W/m² | - |
| 1778045064 | 8.89° C | 99% | 1004.6 hPa | 4.83 mm | 1.34 m/s, 18° | 0 W/m² | - |
| 1778044761 | 8.89° C | 99% | 1004 hPa | 4.83 mm | 2.68 m/s, 344° | 0 W/m² | - |
| 1778044458 | 8.89° C | 99% | 1004.4 hPa | 7.87 mm | 2.24 m/s, 25° | 0 W/m² | - |
| 1778044155 | 9.44° C | 99% | 1004.8 hPa | 8.89 mm | 1.79 m/s, 293° | 0 W/m² | - |
| 1778043852 | 9.44° C | 99% | 1004.6 hPa | 8.89 mm | 0.45 m/s, 306° | 0 W/m² | - |
| 1778043551 | 9.44° C | 99% | 1004.5 hPa | 13.72 mm | 1.34 m/s, 331° | 0 W/m² | - |
| 1778043246 | 9.44° C | 99% | 1004.1 hPa | 16.76 mm | 0.89 m/s, 338° | 0 W/m² | - |
| 1778042943 | 9.44° C | 99% | 1004.1 hPa | 10.67 mm | 1.79 m/s, 358° | 0 W/m² | - |
| 1778042641 | 9.44° C | 99% | 1004.3 hPa | 4.32 mm | 0.89 m/s, 11° | 0 W/m² | - |
| 1778042337 | 9.44° C | 99% | 1003.9 hPa | 3.05 mm | 0.45 m/s, 344° | 0 W/m² | - |
| 1778042034 | 10° C | 99% | 1003.7 hPa | 4.83 mm | 0.89 m/s, 41° | 0 W/m² | - |
| 1778041733 | 10° C | 99% | 1003.8 hPa | 6.1 mm | 1.79 m/s, 354° | 0 W/m² | - |
| 1778041431 | 10° C | 99% | 1004.1 hPa | 4.83 mm | 1.34 m/s, 55° | 0 W/m² | - |
| 1778041130 | 10° C | 99% | 1004.1 hPa | 4.83 mm | 0.89 m/s, 347° | 0 W/m² | - |
| 1778040826 | 10° C | 99% | 1004.3 hPa | 4.83 mm | 1.79 m/s, 358° | 0 W/m² | - |
| 1778040523 | 10° C | 99% | 1004 hPa | 6.1 mm | 0.89 m/s, 327° | 0 W/m² | - |
* Rain latest hour (hover to see other rain measurements)
** Current wind speed in m/s (hover to see current wind gust speed)